KB9ZI Weather Reports


Display with metric or nautical units.
time (UTC)temp
F
wind
direction
speed
MPH
gust
MPH
rain 1hr
in
rain 24hr
in
rain mn
in
humidity
%
barometer
mb
20211024002530 44 86 0.0 1.0 0.00 0.00 0.00 67 1016.2
20211024002307 44 86 0.0 1.0 0.00 0.00 0.00 67 1016.3
20211024002030 44 86 0.0 1.0 0.00 0.00 0.00 67 1016.3
20211024001530 44 86 0.0 2.0 0.00 0.00 0.00 66 1016.3
20211024001307 45 86 0.0 2.0 0.00 0.00 0.00 65 1016.4
20211024001029 45 86 0.0 2.0 0.00 0.00 0.00 65 1016.4
20211024000524 45 86 0.0 0.0 0.00 0.00 0.00 63 1016.4
20211024000024 46 86 0.0 1.0 0.00 0.00 0.00 63 1016.4
20211023235524 46 86 0.0 2.0 0.00 0.00 0.00 62 1016.3
20211023235028 46 86 0.0 6.0 0.00 0.00 0.00 61 1016.3
20211023234524 47 86 0.0 7.0 0.00 0.00 0.00 61 1016.2
20211023234255 47 109 0.0 7.0 0.00 0.00 0.00 61 1016.2
20211023234017 47 109 0.0 7.0 0.00 0.00 0.00 61 1016.2
20211023233518 47 91 0.0 5.0 0.00 0.00 0.00 60 1016.2
20211023233017 47 81 0.0 6.0 0.00 0.00 0.00 59 1016.2
20211023232512 47 98 0.0 6.0 0.00 0.00 0.00 58 1016.2
20211023232011 48 98 0.0 6.0 0.00 0.00 0.00 58 1016.2
20211023231511 48 98 0.0 7.0 0.00 0.00 0.00 58 1016.2
20211023231010 48 96 0.0 7.0 0.00 0.00 0.00 57 1016.3
20211023230512 49 101 0.0 6.0 0.00 0.00 0.00 56 1016.3
20211023230015 49 92 0.0 6.0 0.00 0.00 0.00 56 1016.4
20211023225506 49 92 0.0 6.0 0.00 0.00 0.00 55 1016.4
20211023225014 50 94 0.0 6.0 0.00 0.00 0.00 54 1016.4
20211023225001 50 94 0.0 6.0 0.00 0.00 0.00 55 1016.4
20211023224458 50 94 0.0 6.0 0.00 0.00 0.00 54 1016.4
20211023223958 50 87 0.0 7.0 0.00 0.00 0.00 54 1016.4
20211023223458 50 100 0.0 7.0 0.00 0.00 0.00 53 1016.4
20211023222953 50 92 0.0 6.0 0.00 0.00 0.00 53 1016.5
20211023222453 51 94 0.0 6.0 0.00 0.00 0.00 52 1016.5
20211023221954 51 100 0.0 6.0 0.00 0.00 0.00 52 1016.5
20211023221733 50 100 0.0 7.0 0.00 0.00 0.00 53 1016.5
20211023221454 50 100 0.0 7.0 0.00 0.00 0.00 53 1016.5
20211023220950 51 104 0.0 9.0 0.00 0.00 0.00 53 1016.6
20211023220726 51 107 0.0 9.0 0.00 0.00 0.00 52 1016.6
20211023220450 51 107 0.0 9.0 0.00 0.00 0.00 52 1016.6
20211023215951 51 93 0.0 6.0 0.00 0.00 0.00 52 1016.6
20211023215449 52 121 0.0 5.0 0.00 0.00 0.00 49 1016.6
20211023214951 52 123 0.0 5.0 0.00 0.00 0.00 50 1016.6
20211023214444 52 107 0.0 7.0 0.00 0.00 0.00 49 1016.4
20211023213945 52 107 0.0 7.0 0.00 0.00 0.00 50 1016.6
20211023213444 52 180 0.0 7.0 0.00 0.00 0.00 50 1016.6
20211023212942 51 122 0.0 5.0 0.00 0.00 0.00 51 1016.7
20211023212442 52 161 0.0 5.0 0.00 0.00 0.00 51 1016.7
20211023212218 51 124 0.0 5.0 0.00 0.00 0.00 52 1016.8
20211023211942 51 124 0.0 5.0 0.00 0.00 0.00 52 1016.8
20211023211442 51 124 0.0 6.0 0.00 0.00 0.00 53 1016.7
20211023210938 51 78 0.0 8.0 0.00 0.00 0.00 51 1016.7
20211023210438 52 142 0.0 8.0 0.00 0.00 0.00 51 1016.8
20211023205933 51 90 0.0 9.0 0.00 0.00 0.00 53 1016.9
20211023205708 51 103 0.0 9.0 0.00 0.00 0.00 53 1017.0
20211023205431 51 103 0.0 9.0 0.00 0.00 0.00 53 1017.0
20211023204931 52 117 0.0 7.0 0.00 0.00 0.00 51 1017.0
20211023204430 52 133 0.0 7.0 0.00 0.00 0.00 50 1017.0
20211023204213 51 133 0.0 7.0 0.00 0.00 0.00 51 1017.1
20211023203933 51 133 0.0 7.0 0.00 0.00 0.00 51 1017.1
20211023203430 51 165 0.0 7.0 0.00 0.00 0.00 52 1017.0
20211023202929 50 87 0.0 7.0 0.00 0.00 0.00 51 1016.9
20211023202430 51 86 0.0 9.0 0.00 0.00 0.00 51 1016.9
20211023201926 50 119 0.0 9.0 0.00 0.00 0.00 50 1016.9
20211023201425 51 112 0.0 9.0 0.00 0.00 0.00 51 1016.9
20211023200924 51 297 0.0 11.0 0.00 0.00 0.00 52 1016.9
20211023200656 50 103 0.0 13.0 0.00 0.00 0.00 52 1017.0
20211023200419 50 105 0.0 13.0 0.00 0.00 0.00 52 1017.0
20211023195920 50 64 0.0 13.0 0.00 0.00 0.00 51 1017.1
20211023195419 51 84 0.0 12.0 0.00 0.00 0.00 51 1017.1
20211023194925 51 93 0.0 10.0 0.00 0.00 0.00 51 1017.2
20211023194416 51 64 0.0 10.0 0.00 0.00 0.00 51 1017.3
20211023193919 50 103 0.0 9.0 0.00 0.00 0.00 51 1017.3
20211023193413 52 114 0.0 10.0 0.00 0.00 0.00 50 1017.4
20211023192918 51 86 0.0 10.0 0.00 0.00 0.00 51 1017.4
20211023192413 51 98 0.0 10.0 0.00 0.00 0.00 52 1017.5
20211023191920 51 122 0.0 10.0 0.00 0.00 0.00 51 1017.6
20211023191425 51 115 0.0 12.0 0.00 0.00 0.00 51 1017.8
20211023191413 51 127 0.0 12.0 0.00 0.00 0.00 51 1017.7
20211023190917 51 115 0.0 12.0 0.00 0.00 0.00 51 1017.8
20211023190413 52 192 0.0 8.0 0.00 0.00 0.00 49 1017.8
20211023190155 51 107 0.0 10.0 0.00 0.00 0.00 49 1017.9
20211023185917 51 107 0.0 10.0 0.00 0.00 0.00 49 1017.9
20211023185410 50 88 0.0 10.0 0.00 0.00 0.00 50 1018.0
20211023184909 52 126 0.0 7.0 0.00 0.00 0.00 51 1018.1
20211023184409 51 143 0.0 8.0 0.00 0.00 0.00 51 1018.2
20211023184146 51 95 0.0 10.0 0.00 0.00 0.00 53 1018.2
20211023183910 51 95 0.0 10.0 0.00 0.00 0.00 53 1018.2
20211023183643 49 134 0.0 10.0 0.00 0.00 0.00 53 1018.2
20211023183407 49 134 0.0 10.0 0.00 0.00 0.00 53 1018.2
20211023182906 49 102 0.0 9.0 0.00 0.00 0.00 53 1018.3
20211023182406 49 132 0.0 8.0 0.00 0.00 0.00 54 1018.4
20211023181906 50 184 0.0 8.0 0.00 0.00 0.00 54 1018.3
20211023181403 49 109 0.0 8.0 0.00 0.00 0.00 54 1018.4
20211023181144 50 147 0.0 7.0 0.00 0.00 0.00 56 1018.4
20211023180907 50 147 0.0 7.0 0.00 0.00 0.00 56 1018.4
20211023180403 50 82 0.0 6.0 0.00 0.00 0.00 58 1018.5
20211023175903 48 89 0.0 5.0 0.00 0.00 0.00 55 1018.5
20211023175407 48 80 0.0 10.0 0.00 0.00 0.00 57 1018.6
20211023174859 47 99 0.0 10.0 0.00 0.00 0.00 57 1018.8
20211023174359 48 82 0.0 8.0 0.00 0.00 0.00 56 1018.7
20211023173900 48 136 0.0 10.0 0.00 0.00 0.00 57 1018.7
20211023173405 47 78 0.0 8.0 0.00 0.00 0.00 59 1018.8
20211023173351 47 85 0.0 10.0 0.00 0.00 0.00 58 1018.8
20211023172851 47 78 0.0 8.0 0.00 0.00 0.00 59 1018.8
20211023172353 47 81 0.0 8.0 0.00 0.00 0.00 58 1019.1
20211023171851 47 113 0.0 9.0 0.00 0.00 0.00 59 1019.2
20211023171354 47 102 0.0 9.0 0.00 0.00 0.00 60 1019.2
20211023171125 46 112 0.0 11.0 0.00 0.00 0.00 60 1019.2
20211023170848 46 112 0.0 11.0 0.00 0.00 0.00 60 1019.2
20211023170349 46 130 0.0 11.0 0.00 0.00 0.00 62 1019.2
20211023165848 45 99 0.0 9.0 0.00 0.00 0.00 61 1019.2
20211023165343 45 88 0.0 9.0 0.00 0.00 0.00 62 1019.3
20211023164843 46 114 0.0 5.0 0.00 0.00 0.00 62 1019.4
20211023164344 46 0 0.0 8.0 0.00 0.00 0.00 63 1019.5
20211023163843 47 168 0.0 8.0 0.00 0.00 0.00 68 1019.5
20211023163344 45 110 0.0 5.0 0.00 0.00 0.00 66 1019.5
20211023162839 45 134 0.0 6.0 0.00 0.00 0.00 67 1019.6
20211023162619 45 136 0.0 6.0 0.00 0.00 0.00 68 1019.7
20211023162341 45 136 0.0 6.0 0.00 0.00 0.00 68 1019.7
20211023161832 44 45 0.0 6.0 0.00 0.00 0.00 69 1019.7
20211023161337 44 102 0.0 5.0 0.00 0.00 0.00 68 1019.7
20211023160832 45 115 0.0 4.0 0.00 0.00 0.00 69 1019.7
20211023160334 43 109 0.0 6.0 0.00 0.00 0.00 69 1019.7
20211023155832 44 109 0.0 6.0 0.00 0.00 0.00 68 1019.8
20211023155333 44 133 0.0 6.0 0.00 0.00 0.00 71 1019.8
20211023154832 43 133 0.0 6.0 0.00 0.00 0.00 70 1019.9
20211023154334 43 82 0.0 6.0 0.00 0.00 0.00 70 1019.9
20211023153826 42 111 0.0 6.0 0.00 0.00 0.00 74 1019.9
20211023153326 41 87 0.0 6.0 0.00 0.00 0.00 73 1019.9
20211023152827 41 99 0.0 6.0 0.00 0.00 0.00 76 1019.9
20211023152327 41 107 0.0 6.0 0.00 0.00 0.00 76 1019.8
20211023151827 42 88 0.0 5.0 0.00 0.00 0.00 79 1019.8
20211023151326 40 71 0.0 2.0 0.00 0.00 0.00 80 1019.8
20211023151107 40 323 0.0 4.0 0.00 0.00 0.00 82 1019.8
20211023150830 40 323 0.0 4.0 0.00 0.00 0.00 82 1019.8
20211023150326 39 323 0.0 4.0 0.00 0.00 0.00 83 1019.8
20211023145827 39 317 0.0 4.0 0.00 0.00 0.00 87 1019.9
20211023145329 38 318 0.0 4.0 0.00 0.00 0.00 88 1019.9
20211023144827 38 318 0.0 4.0 0.00 0.00 0.00 91 1019.9
20211023144326 37 318 0.0 4.0 0.00 0.00 0.00 91 1019.9
20211023143827 36 318 0.0 4.0 0.00 0.00 0.00 93 1019.9
20211023143323 35 318 0.0 4.0 0.00 0.00 0.00 94 1020.0
20211023143058 34 318 0.0 4.0 0.00 0.00 0.00 94 1020.0
20211023142820 34 318 0.0 4.0 0.00 0.00 0.00 94 1020.0
20211023142559 33 317 0.0 4.0 0.00 0.00 0.00 94 1020.0
20211023142322 33 317 0.0 4.0 0.00 0.00 0.00 94 1020.0
20211023141814 33 317 0.0 2.0 0.00 0.00 0.00 94 1019.9
20211023141314 33 317 0.0 2.0 0.00 0.00 0.00 94 1019.9
20211023140815 32 317 0.0 2.0 0.00 0.00 0.00 94 1019.8
20211023140547 32 317 0.0 2.0 0.00 0.00 0.00 94 1019.8
20211023140310 32 317 0.0 2.0 0.00 0.00 0.00 94 1019.8
20211023135810 32 317 0.0 2.0 0.00 0.00 0.00 94 1019.8
20211023135310 32 317 0.0 2.0 0.00 0.00 0.00 94 1019.8
20211023134805 32 317 0.0 1.0 0.00 0.00 0.00 94 1019.8
20211023134305 31 317 0.0 0.0 0.00 0.00 0.00 94 1019.7
20211023133805 31 317 0.0 0.0 0.00 0.00 0.00 95 1019.7
20211023133258 30 317 0.0 0.0 0.00 0.00 0.00 94 1019.7
20211023132756 29 317 0.0 0.0 0.00 0.00 0.00 94 1019.6
20211023132254 29 317 0.0 0.0 0.00 0.00 0.00 94 1019.6
20211023131754 29 317 0.0 0.0 0.00 0.00 0.00 94 1019.5
20211023131308 29 317 0.0 0.0 0.00 0.00 0.00 93 1019.4
20211023131253 29 317 0.0 0.0 0.00 0.00 0.00 93 1019.4
20211023130754 29 317 0.0 0.0 0.00 0.00 0.00 93 1019.4
20211023130254 29 317 0.0 0.0 0.00 0.00 0.00 93 1019.5
20211023125751 29 317 0.0 0.0 0.00 0.00 0.00 93 1019.4
20211023125250 29 317 0.0 0.0 0.00 0.00 0.00 93 1019.4
20211023124751 29 317 0.0 0.0 0.00 0.00 0.00 93 1019.4
20211023124243 29 317 0.0 0.0 0.00 0.00 0.00 93 1019.3
20211023123743 29 317 0.0 0.0 0.00 0.00 0.00 93 1019.3
20211023123242 29 317 0.0 0.0 0.00 0.00 0.00 93 1019.5
20211023123013 29 317 0.0 0.0 0.00 0.00 0.00 93 1019.4
20211023122736 29 317 0.0 0.0 0.00 0.00 0.00 93 1019.4
20211023122514 29 317 0.0 0.0 0.00 0.00 0.00 93 1019.4
20211023122237 29 317 0.0 0.0 0.00 0.00 0.00 93 1019.4
20211023121736 29 317 0.0 0.0 0.00 0.00 0.00 93 1019.3
20211023121237 29 317 0.0 0.0 0.00 0.00 0.00 93 1019.3
20211023120741 29 317 0.0 0.0 0.00 0.00 0.00 93 1019.2
20211023120235 29 317 0.0 0.0 0.00 0.00 0.00 93 1019.2
20211023115733 29 317 0.0 0.0 0.00 0.00 0.00 93 1019.2
20211023115238 29 317 0.0 0.0 0.00 0.00 0.00 93 1019.2
20211023114731 29 317 0.0 0.0 0.00 0.00 0.00 93 1019.2
20211023114231 29 317 0.0 0.0 0.00 0.00 0.00 93 1019.2
20211023113726 29 317 0.0 0.0 0.00 0.00 0.00 93 1019.3
20211023113226 29 317 0.0 1.0 0.00 0.00 0.00 93 1019.3
20211023112732 29 317 0.0 1.0 0.00 0.00 0.00 93 1019.3
20211023112220 29 317 0.0 0.0 0.00 0.00 0.00 93 1019.2
20211023111717 29 317 0.0 0.0 0.00 0.00 0.00 92 1019.3
20211023111217 29 317 0.0 0.0 0.00 0.00 0.00 93 1019.3
20211023110718 29 317 0.0 0.0 0.00 0.00 0.00 92 1019.2
20211023110218 30 317 0.0 0.0 0.00 0.00 0.00 93 1019.2
20211023105718 30 317 0.0 0.0 0.00 0.00 0.00 93 1019.2
20211023105215 30 317 0.0 0.0 0.00 0.00 0.00 93 1019.2
20211023104715 30 317 0.0 0.0 0.00 0.00 0.00 93 1019.2
20211023104212 30 317 0.0 0.0 0.00 0.00 0.00 93 1019.1
20211023103710 30 317 0.0 0.0 0.00 0.00 0.00 93 1018.9
20211023103447 30 317 0.0 0.0 0.00 0.00 0.00 92 1018.8
20211023103210 30 317 0.0 0.0 0.00 0.00 0.00 92 1018.8
20211023102713 30 317 0.0 0.0 0.00 0.00 0.00 92 1018.8
20211023102205 30 317 0.0 0.0 0.00 0.00 0.00 92 1018.8
20211023101714 30 317 0.0 0.0 0.00 0.00 0.00 93 1018.9
20211023101703 30 317 0.0 0.0 0.00 0.00 0.00 93 1018.9
20211023101206 30 317 0.0 0.0 0.00 0.00 0.00 93 1018.9
20211023100719 30 317 0.0 0.0 0.00 0.00 0.00 92 1018.9
20211023100707 30 317 0.0 0.0 0.00 0.00 0.00 92 1018.9
20211023100201 30 317 0.0 0.0 0.00 0.00 0.00 92 1018.9
20211023095658 30 317 0.0 0.0 0.00 0.00 0.00 92 1018.9
20211023095155 30 317 0.0 0.0 0.00 0.00 0.00 92 1018.9
20211023094929 30 317 0.0 0.0 0.00 0.00 0.00 92 1018.9
20211023094652 30 317 0.0 0.0 0.00 0.00 0.00 92 1018.9
20211023094425 30 317 0.0 0.0 0.00 0.00 0.00 92 1018.8
20211023094149 30 317 0.0 0.0 0.00 0.00 0.00 92 1018.8
20211023093645 31 317 0.0 0.0 0.00 0.00 0.00 92 1018.8
20211023093138 31 317 0.0 2.0 0.00 0.00 0.00 92 1018.8
20211023092640 31 317 0.0 2.0 0.00 0.00 0.00 92 1018.8
20211023092135 31 317 0.0 0.0 0.00 0.00 0.00 92 1018.7
20211023091636 31 317 0.0 1.0 0.00 0.00 0.00 92 1018.6
20211023091131 31 317 0.0 1.0 0.00 0.00 0.00 92 1018.7
20211023090632 31 317 0.0 2.0 0.00 0.00 0.00 92 1018.8
20211023090135 31 317 0.0 2.0 0.00 0.00 0.00 92 1018.8
20211023085634 31 317 0.0 2.0 0.00 0.00 0.00 92 1018.8
20211023085133 31 316 0.0 0.0 0.00 0.00 0.00 92 1018.8
20211023084632 32 317 0.0 0.0 0.00 0.00 0.00 92 1018.9
20211023084412 32 315 0.0 0.0 0.00 0.00 0.00 92 1018.9
20211023084135 32 315 0.0 0.0 0.00 0.00 0.00 92 1018.9
20211023083631 31 316 0.0 1.0 0.00 0.00 0.00 92 1018.9
20211023083129 31 316 0.0 1.0 0.00 0.00 0.00 91 1018.8
20211023082908 31 315 0.0 1.0 0.00 0.00 0.00 91 1018.8
20211023082632 31 315 0.0 1.0 0.00 0.00 0.00 91 1018.8
20211023082123 31 315 0.0 0.0 0.00 0.00 0.00 91 1018.7
20211023081622 32 316 0.0 0.0 0.00 0.00 0.00 91 1018.6
20211023081118 32 316 0.0 0.0 0.00 0.00 0.00 91 1018.6
20211023080617 32 316 0.0 0.0 0.00 0.00 0.00 91 1018.7
20211023080116 32 316 0.0 1.0 0.00 0.00 0.00 91 1018.7
20211023075612 32 317 0.0 2.0 0.00 0.00 0.00 91 1018.6
20211023075342 32 317 0.0 2.0 0.00 0.00 0.00 91 1018.5
20211023075105 32 317 0.0 2.0 0.00 0.00 0.00 91 1018.5
20211023074606 32 316 0.0 2.0 0.00 0.00 0.00 91 1018.5
20211023074345 32 315 0.0 2.0 0.00 0.00 0.00 91 1018.5
20211023074106 32 315 0.0 2.0 0.00 0.00 0.00 91 1018.5
20211023073606 32 316 0.0 1.0 0.00 0.00 0.00 91 1018.5
20211023073108 32 316 0.0 0.0 0.00 0.00 0.00 90 1018.6
20211023072605 32 315 0.0 0.0 0.00 0.00 0.00 90 1018.5
20211023072102 32 316 0.0 0.0 0.00 0.00 0.00 90 1018.5
20211023071606 32 316 0.0 0.0 0.00 0.00 0.00 89 1018.5
20211023071108 32 315 0.0 0.0 0.00 0.00 0.00 89 1018.5
20211023070840 32 316 0.0 0.0 0.00 0.00 0.00 89 1018.5
20211023070603 32 316 0.0 0.0 0.00 0.00 0.00 89 1018.5
20211023070103 32 316 0.0 0.0 0.00 0.00 0.00 88 1018.5
20211023065838 32 316 0.0 0.0 0.00 0.00 0.00 88 1018.5
20211023065600 32 316 0.0 0.0 0.00 0.00 0.00 88 1018.5
20211023065101 32 315 0.0 0.0 0.00 0.00 0.00 88 1018.5
20211023064559 32 316 0.0 0.0 0.00 0.00 0.00 88 1018.5
20211023064057 32 317 0.0 0.0 0.00 0.00 0.00 88 1018.4
20211023063830 32 316 0.0 0.0 0.00 0.00 0.00 88 1018.4
20211023063553 32 316 0.0 0.0 0.00 0.00 0.00 88 1018.4
20211023063053 32 315 0.0 0.0 0.00 0.00 0.00 88 1018.5
20211023062827 32 317 0.0 0.0 0.00 0.00 0.00 87 1018.4
20211023062549 32 316 0.0 0.0 0.00 0.00 0.00 87 1018.4
20211023062052 32 316 0.0 0.0 0.00 0.00 0.00 87 1018.5
20211023062046 32 315 0.0 0.0 0.00 0.00 0.00 87 1018.5
20211023061828 33 317 0.0 0.0 0.00 0.00 0.00 87 1018.5
20211023061546 33 316 0.0 0.0 0.00 0.00 0.00 87 1018.5
20211023061048 33 316 0.0 0.0 0.00 0.00 0.00 87 1018.5
20211023060546 33 316 0.0 0.0 0.00 0.00 0.00 87 1018.5
20211023060051 33 315 0.0 0.0 0.00 0.00 0.00 87 1018.6
20211023060041 33 316 0.0 0.0 0.00 0.00 0.00 87 1018.6
20211023055548 33 316 0.0 0.0 0.00 0.00 0.00 86 1018.5
20211023055539 33 315 0.0 0.0 0.00 0.00 0.00 86 1018.5
20211023055045 33 317 0.0 0.0 0.00 0.00 0.00 92 1018.6
20211023055038 33 316 0.0 0.0 0.00 0.00 0.00 92 1018.6
20211023054816 34 316 0.0 0.0 0.00 0.00 0.00 86 1018.6
20211023054537 34 315 0.0 0.0 0.00 0.00 0.00 86 1018.6
20211023054044 34 316 0.0 0.0 0.00 0.00 0.00 86 1018.6
20211023054038 34 315 0.0 0.0 0.00 0.00 0.00 86 1018.5
20211023053543 34 316 0.0 0.0 0.00 0.00 0.00 86 1018.5
20211023053535 34 315 0.0 0.0 0.00 0.00 0.00 86 1018.5
20211023053034 34 316 0.0 1.0 0.00 0.00 0.00 86 1018.5
20211023052531 34 316 0.0 1.0 0.00 0.00 0.00 86 1018.6
20211023052030 34 316 0.0 0.0 0.00 0.00 0.00 86 1018.6
20211023051807 34 315 0.0 0.0 0.00 0.00 0.00 86 1018.5
20211023051529 34 315 0.0 0.0 0.00 0.00 0.00 86 1018.5
20211023051029 34 316 0.0 1.0 0.00 0.00 0.00 86 1018.5
20211023050535 34 316 0.0 2.0 0.00 0.00 0.00 86 1018.6
20211023050529 34 316 0.0 2.0 0.00 0.00 0.00 86 1018.7
20211023050028 34 316 0.0 2.0 0.00 0.00 0.00 86 1018.6
20211023045526 35 316 0.0 0.0 0.00 0.00 0.00 86 1018.6
20211023045034 35 316 0.0 0.0 0.00 0.00 0.00 86 1018.7
20211023045027 35 315 0.0 0.0 0.00 0.00 0.00 86 1018.7
20211023044533 35 316 0.0 1.0 0.00 0.00 0.00 86 1018.7
20211023044527 35 315 0.0 1.0 0.00 0.00 0.00 86 1018.7
20211023044033 35 315 0.0 1.0 0.00 0.00 0.00 86 1018.7
20211023044027 35 316 0.0 1.0 0.00 0.00 0.00 86 1018.7
20211023043529 35 316 0.0 0.0 0.00 0.00 0.00 86 1018.8
20211023043303 35 316 0.0 1.0 0.00 0.00 0.00 86 1018.8
20211023043026 35 315 0.0 1.0 0.00 0.00 0.00 86 1018.8
20211023042804 35 316 0.0 1.0 0.00 0.00 0.00 86 1018.9
20211023042527 35 315 0.0 1.0 0.00 0.00 0.00 86 1018.9
20211023042307 36 316 0.0 1.0 0.00 0.00 0.00 86 1018.8
20211023042027 36 316 0.0 1.0 0.00 0.00 0.00 86 1018.8
20211023041526 36 316 0.0 1.0 0.00 0.00 0.00 85 1018.8
20211023041035 36 316 0.0 2.0 0.00 0.00 0.00 85 1018.7
20211023041029 36 315 0.0 2.0 0.00 0.00 0.00 85 1018.7
20211023040534 36 316 0.0 2.0 0.00 0.00 0.00 86 1018.8
20211023040527 36 315 0.0 2.0 0.00 0.00 0.00 86 1018.8
20211023040033 37 315 0.0 2.0 0.00 0.00 0.00 85 1018.8
20211023040027 37 316 0.0 2.0 0.00 0.00 0.00 85 1018.8
20211023035527 37 316 0.0 4.0 0.00 0.00 0.00 85 1018.7
20211023035031 37 315 0.0 4.0 0.00 0.00 0.00 85 1018.8
20211023035022 37 316 0.0 4.0 0.00 0.00 0.00 85 1018.8
20211023034531 36 316 0.0 2.0 0.00 0.00 0.00 84 1018.8
20211023034519 36 315 0.0 2.0 0.00 0.00 0.00 84 1018.8
20211023034034 37 316 0.0 2.0 0.00 0.00 0.00 84 1018.7
20211023034018 36 315 0.0 2.0 0.00 0.00 0.00 84 1018.7
20211023033518 37 315 0.0 1.0 0.00 0.00 0.00 83 1018.8
20211023033304 37 315 0.0 1.0 0.00 0.00 0.00 83 1018.8
20211023033017 37 316 0.0 1.0 0.00 0.00 0.00 83 1018.8
20211023032513 37 315 0.0 1.0 0.00 0.00 0.00 82 1018.8
20211023032027 37 316 0.0 0.0 0.00 0.00 0.00 81 1018.8
20211023032011 37 315 0.0 0.0 0.00 0.00 0.00 81 1018.8
20211023031514 37 315 0.0 0.0 0.00 0.00 0.00 80 1018.7
20211023031031 38 315 0.0 0.0 0.00 0.00 0.00 79 1018.7
20211023031011 38 315 0.0 0.0 0.00 0.00 0.00 79 1018.7
20211023030505 38 315 0.0 0.0 0.00 0.00 0.00 79 1018.7
20211023030003 38 315 0.0 0.0 0.00 0.00 0.00 79 1018.7
20211023025504 38 315 0.0 0.0 0.00 0.00 0.00 78 1018.6
20211023025020 38 315 0.0 0.0 0.00 0.00 0.00 78 1018.6
20211023024958 38 315 0.0 0.0 0.00 0.00 0.00 78 1018.6
20211023024522 38 315 0.0 0.0 0.00 0.00 0.00 78 1018.5
20211023024459 38 315 0.0 0.0 0.00 0.00 0.00 78 1018.5
20211023024022 38 316 0.0 0.0 0.00 0.00 0.00 78 1018.5
20211023023956 38 315 0.0 0.0 0.00 0.00 0.00 78 1018.5
20211023023518 38 315 0.0 0.0 0.00 0.00 0.00 78 1018.4
20211023023456 38 315 0.0 0.0 0.00 0.00 0.00 78 1018.4
20211023023020 38 315 0.0 0.0 0.00 0.00 0.00 77 1018.5
20211023022957 38 315 0.0 0.0 0.00 0.00 0.00 77 1018.5
20211023022748 39 315 0.0 0.0 0.00 0.00 0.00 78 1018.5
20211023022450 39 315 0.0 0.0 0.00 0.00 0.00 78 1018.5
20211023022017 39 315 0.0 0.0 0.00 0.00 0.00 78 1018.4
20211023021951 39 315 0.0 0.0 0.00 0.00 0.00 78 1018.4
20211023021518 39 315 0.0 0.0 0.00 0.00 0.00 78 1018.4
20211023021448 39 315 0.0 0.0 0.00 0.00 0.00 78 1018.4
20211023021249 39 315 0.0 0.0 0.00 0.00 0.00 77 1018.5
20211023020946 39 315 0.0 0.0 0.00 0.00 0.00 77 1018.5
20211023020445 39 315 0.0 0.0 0.00 0.00 0.00 75 1018.4
20211023020019 39 315 0.0 0.0 0.00 0.00 0.00 75 1018.4
20211023015946 39 315 0.0 0.0 0.00 0.00 0.00 75 1018.4
20211023015513 39 315 0.0 0.0 0.00 0.00 0.00 75 1018.3
20211023015447 39 315 0.0 0.0 0.00 0.00 0.00 75 1018.3
20211023015005 40 315 0.0 0.0 0.00 0.00 0.00 73 1018.3
20211023014946 40 315 0.0 0.0 0.00 0.00 0.00 73 1018.3
20211023014506 40 316 0.0 0.0 0.00 0.00 0.00 73 1018.2
20211023014446 40 315 0.0 0.0 0.00 0.00 0.00 73 1018.2
20211023014007 40 315 0.0 0.0 0.00 0.00 0.00 73 1018.3
20211023013944 40 315 0.0 0.0 0.00 0.00 0.00 73 1018.3
20211023013509 40 315 0.0 0.0 0.00 0.00 0.00 73 1018.2
20211023013442 40 315 0.0 0.0 0.00 0.00 0.00 73 1018.2
20211023013008 40 315 0.0 0.0 0.00 0.00 0.00 72 1018.3
20211023012941 40 315 0.0 0.0 0.00 0.00 0.00 72 1018.3
20211023012508 41 315 0.0 0.0 0.00 0.00 0.00 71 1018.3
20211023012440 41 315 0.0 0.0 0.00 0.00 0.00 71 1018.3
20211023012006 41 315 0.0 0.0 0.00 0.00 0.00 71 1018.3
20211023011940 41 315 0.0 0.0 0.00 0.00 0.00 71 1018.3
20211023011507 41 315 0.0 0.0 0.00 0.00 0.00 71 1018.2
20211023011444 41 315 0.0 0.0 0.00 0.00 0.00 71 1018.2
20211023010936 41 315 0.0 0.0 0.00 0.00 0.00 70 1018.1
20211023010435 41 315 0.0 0.0 0.00 0.00 0.00 70 1018.1
20211023005937 41 315 0.0 0.0 0.00 0.00 0.00 70 1018.1
20211023005434 41 315 0.0 0.0 0.00 0.00 0.00 70 1018.0
20211023004931 40 315 0.0 0.0 0.00 0.00 0.00 70 1017.9
20211023004730 40 315 0.0 0.0 0.00 0.00 0.00 70 1017.9
20211023004433 40 315 0.0 0.0 0.00 0.00 0.00 70 1017.9
20211023003931 40 315 0.0 0.0 0.00 0.00 0.00 69 1017.9
20211023003427 40 315 0.0 0.0 0.00 0.00 0.00 69 1017.9
20211023002928 41 315 0.0 0.0 0.00 0.00 0.00 68 1017.8